{"data":{"norad_id":40536,"epoch":"2026-09-20T04:45:45.648864Z","epoch_age_seconds":40385,"freshness":"FRESH","line1":"1 40536U 15014A   26263.19844501  .00018508  00000+0  22794-3 0  9998","line2":"2 40536  97.6940 261.9037 0049517 185.2870 174.7869 15.58755623636598","mean_motion":15.58755623,"eccentricity":0.0049517,"inclination_deg":97.694,"raan_deg":261.9037,"arg_perigee_deg":185.287,"mean_anomaly_deg":174.7869,"bstar":0.00022794,"rev_number":63659,"period_min":92.381382864144,"perigee_km":357.73741186264,"apogee_km":424.77743258369,"semimajor_km":6769.3944222232,"source":"CELESTRAK","updated_at":"2026-09-20T09:00:33.963686Z"}}